[[{"header":{"parameterUnit":"m.s-1","parameterCategory":1,"la1":30.2991,"la2":30.254,"lo1":-89.0895,"lo2":-89.0444,"dy":0.0017,"dx":0.0017,"nx":28,"ny":28,"refTime":"2025-03-24T03:00:00:Z","depth":0,"parameterNumber":2,"parameterNumberName":"U-component_of_WINDS"},"data":[0,0,0,0,0,0,0,0,0,0,0,0,0,0,0,0,0,0,0,0,0,0,0,0,0,0,0,0,0,0,0,0,0,0,0,0,0,0,0,0,0,0,0,0,0,0,0,0,0,0,0,0,0,0,0,0,0,0,0.0549,0.0549,0,0.0587,0.0587,0.0588,0.0647,0.0648,0.0649,0.065,0.0686,0.0686,0.0686,0,0,0,0,0,0,0,0,0,0,0,0,0,0.0526,0.0526,0.0549,0.0549,0.055,0.0587,0.0587,0.0588,0.0647,0.0648,0.0649,0.065,0.0686,0.0686,0.0686,0,0,0,0,0,0,0,0,0,0,0,0,0,0.0547,0.0526,0.0549,0.0584,0.0587,0.0587,0.0587,0.0588,0.0646,0.0648,0.065,0.0651,0.0686,0.0686,0.0686,0.0654,0,0,0.0686,0.0686,0,0,0,0,0,0,0,0,0.0545,0.0548,0.0578,0.0581,0.0585,0.0614,0.0592,0.061,0.0646,0.0624,0.065,0.0652,0.0661,0.0663,0.0666,0.0655,0.0657,0.0686,0.0686,0.0686,0.0686,0,0,0,0,0,0,0,0.0544,0.0546,0.0564,0.0578,0.0583,0.0597,0.0602,0.0596,0.0633,0.0626,0.063,0.0634,0.0663,0.0666,0.0668,0.0657,0.0686,0.0686,0.0686,0.0686,0.0622,0.062,0,0,0,0,0,0,0.0538,0.0545,0.0563,0.0565,0.0569,0.0596,0.0601,0.0603,0.0633,0.0639,0.0633,0.0637,0.0665,0.0667,0.0669,0.0633,0.0686,0.0686,0.0686,0.0623,0.0621,0.0619,0,0,0,0,0,0,0.0537,0.0539,0.0561,0.0556,0.056,0.0595,0.0596,0.0603,0.0606,0.0638,0.0645,0.0629,0.0667,0.0669,0.0657,0.0635,0.0686,0.0686,0.0625,0.0623,0.062,0.056,0,0,0,0,0,0,0.0536,0.0538,0.0526,0.0555,0.056,0.0549,0.0595,0.0602,0.0606,0.0612,0.0637,0.0642,0.0668,0.0657,0.0657,0.0636,0.0686,0.0627,0.0624,0.0621,0.0564,0.0556,0.0549,0,0,0,0,0,0.0535,0.0507,0.0526,0.0527,0.0546,0.0548,0.055,0.0581,0.0604,0.0593,0.0613,0.0642,0.0637,0.0655,0.0656,0.0634,0.0629,0.0625,0.0621,0.0568,0.0557,0.0549,0,0,0,0,0,0,0.0474,0.0512,0.0532,0.0513,0.0527,0.0558,0.0544,0.0569,0.0576,0.0581,0.0618,0.0623,0.0607,0.0619,0.0638,0.0604,0.0638,0.0634,0.0596,0.0587,0.0579,0.0576,0.0686,0,0,0,0,0,0.0459,0.0457,0.049,0.047,0.0476,0.0508,0.051,0.0533,0.0548,0.0554,0.0574,0.0586,0.0588,0.0589,0.0592,0.0567,0.0573,0.0552,0.0544,0.0538,0.0534,0.0521,0.0512,0.0607,0.0607,0.0607,0,0,0.0426,0.0447,0.0443,0.0458,0.0472,0.0469,0.0513,0.0508,0.0506,0.0553,0.0543,0.0558,0.0575,0.0556,0.0549,0.0566,0.0509,0.0533,0.0527,0.0527,0.0516,0.0507,0.0499,0.0604,0.0605,0.0605,0,0,0.0366,0.0381,0.0366,0.0379,0.0399,0.0421,0.0417,0.0444,0.0456,0.0447,0.0482,0.048,0.0482,0.0493,0.0499,0.0443,0.0469,0.0443,0.0402,0.0389,0.0382,0.0375,0.0355,0.0347,0.0439,0.0439,0.0439,0,0.0323,0.032,0.0355,0.0348,0.0354,0.0397,0.0382,0.0393,0.0412,0.0414,0.0434,0.0438,0.0452,0.0436,0.0423,0.0426,0.0423,0.044,0.038,0.0374,0.0368,0.0349,0.0342,0.0435,0.0436,0.0436,0.0436,0,0.0266,0.0264,0.025,0.0268,0.0272,0.0261,0.0294,0.0293,0.0316,0.0336,0.0326,0.0345,0.0353,0.0351,0.0373,0.0338,0.0348,0.0373,0.0407,0.0355,0.0338,0.0331,0.043,0.0432,0.0433,0.0433,0,0,0.0168,0.0206,0.02,0.0209,0.0235,0.0233,0.0224,0.0233,0.0232,0.0244,0.0236,0.0238,0.0261,0.0267,0.0291,0.028,0.0234,0.0306,0.0307,0.0292,0.0197,0.0177,0.0168,0.0252,0.0251,0.025,0.0195,0,0.0112,0.0099,0.013,0.0109,0.0108,0.0149,0.0141,0.0155,0.0174,0.0174,0.0195,0.0195,0.0226,0.023,0.0221,0.0241,0.0215,0.0246,0.0244,0.0244,0.0238,0.0159,0.0138,0.0086,0.0188,0.0187,0.0187,0,0.0045,0.0054,0.0033,0.006,0.006,0.0053,0.0063,0.0064,0.0081,0.0095,0.0102,0.013,0.0122,0.0155,0.0145,0.0165,0.0166,0.0176,0.0175,0.0175,0.0211,0.0157,0.007,0.0062,0.0176,0.0177,0.0178,0,-0.0026,-0.0018,-0.003,-0.0023,0.0008,0.0001,0.0014,0.0033,0.0036,0.0045,0.0047,0.0055,0.0059,0.0064,0.0093,0.0114,0.0078,0.0114,0.0089,0.0088,0.0079,0.0079,-0.001,0.0081,0.0081,0.0081,0.0081,0,-0.0092,-0.0107,-0.0061,-0.0068,-0.0083,-0.0047,-0.0063,-0.0047,-0.0031,-0.0034,0.0002,-0.0002,0.0037,0.0036,0.0059,0.0046,0.0048,0.0058,0.0064,0.0055,0.0053,0.0055,0.0059,0.0079,0.008,0.008,0.008,0,-0.0174,-0.0143,-0.0153,-0.0123,-0.0115,-0.0128,-0.0102,-0.0108,-0.0087,-0.0092,-0.0091,-0.0059,-0.0057,-0.0028,-0.002,-0.0005,-0.0027,-0.0014,-0.0033,-0.0029,-0.0056,-0.0054,-0.0146,-0.0157,-0.0059,-0.006,-0.0061,0,-0.0218,-0.0228,-0.0198,-0.0198,-0.0187,-0.0186,-0.0182,-0.0147,-0.0145,-0.0126,-0.0134,-0.013,-0.0124,-0.0124,-0.01,-0.0094,-0.0081,-0.0114,-0.008,-0.0089,-0.0082,-0.0082,-0.0083,-0.0121,-0.0123,-0.0124,-0.0124,0,-0.03,-0.0285,-0.028,-0.0271,-0.0267,-0.0258,-0.0246,-0.0248,-0.0209,-0.0209,-0.0206,-0.0202,-0.0194,-0.019,-0.0179,-0.0167,-0.014,-0.0135,-0.0141,-0.0151,-0.0162,-0.0157,-0.0053,-0.0133,-0.0132,-0.0132,-0.0131,-0.0131,-0.0365,-0.0372,-0.0352,-0.0348,-0.0336,-0.0326,-0.033,-0.0309,-0.0306,-0.0296,-0.0275,-0.0276,-0.0259,-0.0242,-0.0232,-0.0233,-0.0216,-0.0224,-0.0226,-0.0229,-0.0235,-0.0161,-0.0231,-0.023,-0.023,-0.023,-0.023,0,-0.0446,-0.0431,-0.0428,-0.0412,-0.041,-0.0382,-0.0368,-0.0368,-0.0369,-0.0355,-0.035,-0.0347,-0.0343,-0.0319,-0.0312,-0.0317,-0.0305,-0.0317,-0.0317,-0.0314,-0.025,-0.0246,-0.0327,-0.0327,-0.0327,-0.0327,-0.0327,-0.0327,-0.0488,-0.0498,-0.048,-0.0485,-0.0469,-0.0469,-0.0464,-0.0455,-0.0443,-0.0441,-0.0437,-0.0421,-0.0403,-0.0394,-0.039,-0.0382,-0.0382,-0.0399,-0.0388,-0.0328,-0.0319,-0.031,-0.0306,-0.0399,-0.0399,-0.0452,-0.0453,-0.0453]},{"header":{"parameterUnit":"m.s-1","parameterCategory":1,"la1":30.2991,"la2":30.254,"lo1":-89.0895,"lo2":-89.0444,"dy":0.0017,"dx":0.0017,"nx":28,"ny":28,"refTime":"2025-03-24T03:00:00:Z","depth":0,"parameterNumber":3,"parameterNumberName":"V-component_of_WINDS"},"data":[0,0,0,0,0,0,0,0,0,0,0,0,0,0,0,0,0,0,0,0,0,0,0,0,0,0,0,0,0,0,0,0,0,0,0,0,0,0,0,0,0,0,0,0,0,0,0,0,0,0,0,0,0,0,0,0,0,0,-0.291,-0.2911,0,-0.301,-0.3011,-0.3012,-0.3025,-0.3024,-0.3023,-0.3022,-0.3126,-0.313,-0.3134,0,0,0,0,0,0,0,0,0,0,0,0,0,-0.2731,-0.2735,-0.291,-0.2911,-0.2912,-0.301,-0.3011,-0.3012,-0.3025,-0.3024,-0.3023,-0.3022,-0.3125,-0.313,-0.3134,0,0,0,0,0,0,0,0,0,0,0,0,0,-0.2818,-0.2736,-0.291,-0.293,-0.2933,-0.3009,-0.3011,-0.3013,-0.3025,-0.3024,-0.3023,-0.3021,-0.3124,-0.3129,-0.3135,-0.3197,0,0,-0.3151,-0.3154,0,0,0,0,0,0,0,0,-0.2813,-0.2824,-0.2926,-0.2929,-0.2932,-0.3003,-0.2986,-0.3075,-0.3026,-0.2991,-0.3022,-0.3021,-0.3087,-0.3095,-0.3117,-0.3202,-0.3207,-0.3152,-0.3155,-0.3158,-0.3159,0,0,0,0,0,0,0,-0.2807,-0.282,-0.2949,-0.2928,-0.2932,-0.2935,-0.2946,-0.3003,-0.3046,-0.2994,-0.2995,-0.3006,-0.3088,-0.3112,-0.312,-0.3208,-0.3152,-0.3157,-0.316,-0.3162,-0.3349,-0.3351,0,0,0,0,0,0,-0.2797,-0.2815,-0.2946,-0.2952,-0.2868,-0.294,-0.2952,-0.2982,-0.3045,-0.3053,-0.3007,-0.3006,-0.3103,-0.3113,-0.3123,-0.3201,-0.3158,-0.3163,-0.3166,-0.3348,-0.335,-0.3351,0,0,0,0,0,0,-0.2793,-0.2809,-0.2942,-0.2884,-0.2901,-0.2944,-0.2978,-0.2985,-0.3009,-0.3055,-0.3063,-0.3024,-0.3102,-0.3116,-0.3179,-0.3205,-0.3165,-0.317,-0.3346,-0.3348,-0.3351,-0.3357,0,0,0,0,0,0,-0.2788,-0.2807,-0.2831,-0.2885,-0.2904,-0.2996,-0.298,-0.2988,-0.3018,-0.3018,-0.3073,-0.3081,-0.3102,-0.317,-0.3184,-0.3212,-0.3174,-0.3344,-0.3347,-0.335,-0.3354,-0.3359,-0.3363,0,0,0,0,0,-0.2781,-0.2829,-0.2832,-0.2848,-0.2935,-0.2997,-0.3008,-0.3032,-0.302,-0.3045,-0.3075,-0.3079,-0.3199,-0.3177,-0.3192,-0.3222,-0.3342,-0.3346,-0.335,-0.3352,-0.3358,-0.3363,0,0,0,0,0,0,-0.2779,-0.2837,-0.2841,-0.2907,-0.2947,-0.2999,-0.3031,-0.3037,-0.3082,-0.308,-0.3108,-0.312,-0.3182,-0.3208,-0.3182,-0.3286,-0.327,-0.3277,-0.3266,-0.3272,-0.3276,-0.3269,-0.3179,0,0,0,0,0,-0.2786,-0.2831,-0.2879,-0.2933,-0.2953,-0.2988,-0.3016,-0.3031,-0.3073,-0.309,-0.3125,-0.3166,-0.3214,-0.3244,-0.329,-0.3358,-0.337,-0.3386,-0.339,-0.3393,-0.3399,-0.3437,-0.3444,-0.3364,-0.3364,-0.3364,0,0,-0.2802,-0.2839,-0.2865,-0.2934,-0.2966,-0.3012,-0.3003,-0.3052,-0.3086,-0.3098,-0.3159,-0.3186,-0.3234,-0.3299,-0.333,-0.3323,-0.3424,-0.3398,-0.34,-0.3405,-0.3441,-0.3449,-0.3456,-0.3366,-0.3366,-0.3365,0,0,-0.2853,-0.2885,-0.2934,-0.2966,-0.3015,-0.3038,-0.305,-0.3101,-0.3119,-0.318,-0.319,-0.3231,-0.3312,-0.3346,-0.3374,-0.3437,-0.3442,-0.3451,-0.3474,-0.351,-0.3516,-0.3522,-0.3545,-0.3552,-0.3457,-0.3457,-0.3457,0,-0.2866,-0.2935,-0.2958,-0.3007,-0.3036,-0.3048,-0.3097,-0.3128,-0.319,-0.321,-0.3201,-0.3302,-0.3336,-0.3409,-0.3424,-0.3446,-0.346,-0.3445,-0.3513,-0.3519,-0.3525,-0.3547,-0.3555,-0.3457,-0.3457,-0.3457,-0.3457,0,-0.2949,-0.2997,-0.303,-0.3088,-0.3122,-0.317,-0.3201,-0.3232,-0.3243,-0.3267,-0.333,-0.337,-0.3424,-0.3442,-0.3454,-0.3517,-0.3511,-0.3508,-0.3492,-0.3533,-0.3554,-0.3563,-0.3458,-0.3458,-0.3458,-0.3458,0,0,-0.3003,-0.3072,-0.3084,-0.311,-0.3165,-0.3202,-0.3251,-0.3303,-0.3329,-0.3371,-0.3413,-0.3481,-0.3477,-0.3509,-0.3524,-0.3556,-0.3603,-0.3549,-0.355,-0.3557,-0.3675,-0.3677,-0.3687,-0.3606,-0.3608,-0.361,-0.3671,0,-0.3061,-0.3148,-0.317,-0.3244,-0.3289,-0.33,-0.3342,-0.338,-0.3404,-0.3445,-0.3471,-0.3519,-0.3511,-0.353,-0.3561,-0.359,-0.3627,-0.3586,-0.3646,-0.3648,-0.3634,-0.3697,-0.3701,-0.3757,-0.3679,-0.368,-0.3681,0,-0.3141,-0.3183,-0.3262,-0.3309,-0.3329,-0.3367,-0.3416,-0.3455,-0.3498,-0.3513,-0.3547,-0.356,-0.3611,-0.3592,-0.3664,-0.3636,-0.3662,-0.368,-0.3682,-0.3689,-0.3668,-0.3707,-0.3775,-0.3783,-0.3694,-0.3693,-0.3692,0,-0.3172,-0.3249,-0.3306,-0.3328,-0.3385,-0.3412,-0.3437,-0.3478,-0.3508,-0.3551,-0.357,-0.3619,-0.3646,-0.3683,-0.3708,-0.3692,-0.3778,-0.3761,-0.3792,-0.3791,-0.381,-0.3809,-0.3884,-0.3826,-0.3826,-0.3826,-0.3825,0,-0.3235,-0.3283,-0.3321,-0.3356,-0.341,-0.3434,-0.3487,-0.3512,-0.3549,-0.3589,-0.3601,-0.3639,-0.367,-0.3712,-0.3732,-0.3788,-0.38,-0.3814,-0.3818,-0.3813,-0.3811,-0.3831,-0.3828,-0.3828,-0.3827,-0.3827,-0.3827,0,-0.328,-0.3308,-0.337,-0.3418,-0.3432,-0.3469,-0.3511,-0.3545,-0.3568,-0.3619,-0.3633,-0.3669,-0.3719,-0.3748,-0.3811,-0.3824,-0.3887,-0.389,-0.3872,-0.3874,-0.3904,-0.3901,-0.3995,-0.4008,-0.394,-0.3941,-0.3941,0,-0.3319,-0.3356,-0.3407,-0.3435,-0.346,-0.3504,-0.3534,-0.3559,-0.359,-0.3641,-0.3669,-0.372,-0.3761,-0.3841,-0.3873,-0.3922,-0.3926,-0.3955,-0.3933,-0.3926,-0.3927,-0.3925,-0.3928,-0.3959,-0.396,-0.3961,-0.3961,0,-0.3385,-0.3396,-0.3438,-0.3485,-0.352,-0.3559,-0.3597,-0.3619,-0.365,-0.3684,-0.3734,-0.3767,-0.383,-0.388,-0.3931,-0.3957,-0.3965,-0.3967,-0.3977,-0.3972,-0.3961,-0.3968,-0.3883,-0.3965,-0.3965,-0.3965,-0.3964,-0.3964,-0.3428,-0.3461,-0.3502,-0.3549,-0.358,-0.3615,-0.3649,-0.3676,-0.3719,-0.3772,-0.3784,-0.3837,-0.3879,-0.3948,-0.3975,-0.4017,-0.4012,-0.4026,-0.403,-0.4033,-0.4034,-0.3953,-0.4027,-0.4026,-0.4026,-0.4026,-0.4026,0,-0.3495,-0.3521,-0.3564,-0.3616,-0.3653,-0.3655,-0.3697,-0.3728,-0.3774,-0.3812,-0.3852,-0.391,-0.3958,-0.3994,-0.4044,-0.4071,-0.4075,-0.4083,-0.4082,-0.4087,-0.4036,-0.4023,-0.4078,-0.4078,-0.4078,-0.4078,-0.4078,-0.4078,-0.3534,-0.359,-0.3605,-0.3677,-0.3703,-0.3755,-0.3779,-0.3811,-0.3841,-0.3905,-0.3945,-0.3967,-0.4005,-0.4057,-0.4101,-0.411,-0.4128,-0.4135,-0.4145,-0.4097,-0.4091,-0.4086,-0.4073,-0.4139,-0.4139,-0.4193,-0.4194,-0.4194]}]]